[[{"header":{"parameterUnit":"m.s-1","parameterCategory":1,"la1":30.2991,"la2":30.254,"lo1":-89.0895,"lo2":-89.0444,"dy":0.0017,"dx":0.0017,"nx":28,"ny":28,"refTime":"2025-08-30T03:00:00:Z","depth":0,"parameterNumber":2,"parameterNumberName":"U-component_of_WINDS"},"data":[0,0,0,0,0,0,0,0,0,0,0,0,0,0,0,0,0,0,0,0,0,0,0,0,0,0,0,0,0,0,0,0,0,0,0,0,0,0,0,0,0,0,0,0,0,0,0,0,0,0,0,0,0,0,0,0,0,0,-4.1537,-4.1538,0,-4.1553,-4.1553,-4.1553,-4.1457,-4.1454,-4.1452,-4.1449,-4.1469,-4.1472,-4.1476,0,0,0,0,0,0,0,0,0,0,0,0,0,-4.1429,-4.1432,-4.1537,-4.1538,-4.1538,-4.1553,-4.1553,-4.1553,-4.1457,-4.1454,-4.1451,-4.1448,-4.1468,-4.1472,-4.1476,0,0,0,0,0,0,0,0,0,0,0,0,0,-4.1464,-4.1432,-4.1537,-4.1492,-4.1488,-4.1553,-4.1553,-4.1553,-4.1458,-4.1454,-4.145,-4.1446,-4.1467,-4.1472,-4.1476,-4.1588,0,0,-4.1491,-4.1493,0,0,0,0,0,0,0,0,-4.1462,-4.1468,-4.1498,-4.1495,-4.1491,-4.1499,-4.1522,-4.1565,-4.1459,-4.147,-4.1449,-4.1444,-4.1483,-4.1486,-4.1498,-4.1589,-4.1589,-4.1491,-4.1494,-4.1496,-4.1497,0,0,0,0,0,0,0,-4.146,-4.1467,-4.1544,-4.1499,-4.1494,-4.1472,-4.1472,-4.153,-4.1499,-4.1468,-4.1461,-4.1464,-4.148,-4.1494,-4.1498,-4.159,-4.1491,-4.1495,-4.1498,-4.15,-4.1774,-4.1779,0,0,0,0,0,0,-4.1463,-4.1465,-4.1543,-4.1544,-4.1466,-4.1477,-4.1478,-4.15,-4.1498,-4.1494,-4.1468,-4.146,-4.1488,-4.1493,-4.1498,-4.163,-4.1496,-4.15,-4.1503,-4.177,-4.1775,-4.178,0,0,0,0,0,0,-4.1461,-4.1471,-4.1543,-4.1503,-4.151,-4.1483,-4.151,-4.1503,-4.1516,-4.1498,-4.1492,-4.1487,-4.1485,-4.1492,-4.1566,-4.1629,-4.1502,-4.1506,-4.1765,-4.1772,-4.1778,-4.1894,0,0,0,0,0,0,-4.1458,-4.147,-4.1511,-4.1504,-4.1513,-4.1609,-4.1514,-4.1506,-4.1524,-4.1514,-4.1515,-4.1511,-4.1482,-4.156,-4.1571,-4.1633,-4.151,-4.1759,-4.1768,-4.1776,-4.1884,-4.1903,-4.192,0,0,0,0,0,-4.1454,-4.1544,-4.1514,-4.1524,-4.1563,-4.1613,-4.1618,-4.1582,-4.153,-4.1572,-4.156,-4.1511,-4.162,-4.1568,-4.158,-4.1645,-4.1755,-4.1765,-4.1775,-4.1876,-4.19,-4.192,0,0,0,0,0,0,-4.156,-4.1542,-4.1509,-4.1598,-4.1608,-4.1597,-4.1648,-4.1608,-4.1633,-4.1623,-4.1578,-4.1579,-4.1662,-4.166,-4.1603,-4.1753,-4.1679,-4.1692,-4.1751,-4.1774,-4.1791,-4.1791,-4.1514,0,0,0,0,0,-4.1594,-4.1634,-4.1617,-4.1698,-4.1704,-4.1676,-4.1696,-4.1667,-4.1676,-4.168,-4.1673,-4.1685,-4.1722,-4.1747,-4.178,-4.1883,-4.1883,-4.1933,-4.1951,-4.1966,-4.1979,-4.2035,-4.2058,-4.1814,-4.1813,-4.1813,0,0,-4.1664,-4.1659,-4.1688,-4.1719,-4.1723,-4.1768,-4.168,-4.173,-4.1764,-4.1688,-4.1758,-4.1754,-4.1764,-4.1854,-4.1893,-4.1855,-4.2046,-4.1979,-4.1991,-4.1995,-4.2048,-4.2071,-4.2091,-4.182,-4.1819,-4.1818,0,0,-4.1815,-4.1815,-4.1882,-4.1888,-4.1895,-4.1875,-4.1892,-4.1887,-4.1881,-4.195,-4.1895,-4.1935,-4.1999,-4.2009,-4.2022,-4.2178,-4.2135,-4.219,-4.2285,-4.234,-4.2359,-4.2376,-4.2434,-4.2455,-4.2202,-4.2202,-4.2202,0,-4.1902,-4.1966,-4.1923,-4.1978,-4.1994,-4.1926,-4.1996,-4.2003,-4.2022,-4.2035,-4.1992,-4.2072,-4.2074,-4.2166,-4.2204,-4.2216,-4.2236,-4.2191,-4.236,-4.2376,-4.2391,-4.2446,-4.2468,-4.2209,-4.2208,-4.2208,-4.2207,0,-4.2073,-4.2119,-4.2173,-4.2191,-4.2213,-4.2275,-4.2244,-4.2271,-4.2241,-4.2227,-4.2299,-4.2299,-4.2331,-4.235,-4.2321,-4.2439,-4.2416,-4.2367,-4.2292,-4.2422,-4.2473,-4.2493,-4.2219,-4.2216,-4.2214,-4.2213,0,0,-4.2293,-4.2286,-4.2307,-4.2315,-4.2317,-4.2353,-4.2412,-4.2443,-4.2469,-4.2483,-4.2534,-4.259,-4.2545,-4.256,-4.2532,-4.258,-4.2706,-4.2525,-4.2525,-4.2561,-4.2839,-4.2877,-4.2902,-4.2677,-4.268,-4.2683,-4.2838,0,-4.2442,-4.2542,-4.2506,-4.2609,-4.2652,-4.2588,-4.264,-4.2649,-4.2637,-4.2673,-4.266,-4.2701,-4.2638,-4.2647,-4.2692,-4.2681,-4.2762,-4.2669,-4.2726,-4.2728,-4.2727,-4.2928,-4.2968,-4.3114,-4.2858,-4.2861,-4.2863,0,-4.2629,-4.2651,-4.2759,-4.2755,-4.2772,-4.2819,-4.2845,-4.2879,-4.2888,-4.2876,-4.2894,-4.2855,-4.2915,-4.2839,-4.2922,-4.2861,-4.2881,-4.288,-4.2885,-4.289,-4.2805,-4.2941,-4.316,-4.3183,-4.2894,-4.2891,-4.2889,0,-4.2782,-4.2837,-4.2909,-4.2918,-4.2915,-4.295,-4.2951,-4.2955,-4.2976,-4.2999,-4.3013,-4.3043,-4.306,-4.3085,-4.3057,-4.3003,-4.3146,-4.3066,-4.314,-4.3141,-4.3174,-4.3173,-4.3402,-4.3185,-4.3184,-4.3184,-4.3183,0,-4.2953,-4.3022,-4.2977,-4.3022,-4.3098,-4.3056,-4.3133,-4.3127,-4.3131,-4.3175,-4.3121,-4.3164,-4.3122,-4.3162,-4.3139,-4.3214,-4.3221,-4.3215,-4.3209,-4.3221,-4.3223,-4.3236,-4.3226,-4.319,-4.3188,-4.3187,-4.3186,0,-4.3136,-4.3109,-4.3184,-4.3174,-4.3174,-4.3231,-4.3223,-4.3265,-4.3249,-4.3306,-4.3316,-4.3293,-4.3336,-4.3309,-4.3354,-4.3339,-4.3437,-4.3415,-4.3434,-4.3429,-4.3505,-4.3499,-4.3752,-4.3784,-4.3544,-4.3547,-4.3549,0,-4.3249,-4.33,-4.3297,-4.3321,-4.3325,-4.3366,-4.3387,-4.3347,-4.3372,-4.3386,-4.3427,-4.3466,-4.3495,-4.3568,-4.3556,-4.359,-4.3571,-4.3657,-4.3576,-4.3587,-4.3575,-4.3573,-4.3579,-4.3674,-4.3677,-4.3679,-4.3681,0,-4.3452,-4.3436,-4.3467,-4.3495,-4.3521,-4.3542,-4.3557,-4.3581,-4.3542,-4.3572,-4.3616,-4.3638,-4.3683,-4.3723,-4.3752,-4.3755,-4.3713,-4.3706,-4.3726,-4.374,-4.375,-4.3748,-4.3481,-4.3701,-4.3699,-4.3698,-4.3697,-4.3696,-4.3605,-4.3648,-4.3653,-4.369,-4.3697,-4.3714,-4.3753,-4.3742,-4.3777,-4.381,-4.3784,-4.3837,-4.3846,-4.388,-4.3888,-4.393,-4.3895,-4.3922,-4.393,-4.3938,-4.3949,-4.3741,-4.3934,-4.3934,-4.3933,-4.3933,-4.3932,0,-4.3807,-4.3806,-4.3841,-4.3865,-4.3895,-4.385,-4.3866,-4.3895,-4.3941,-4.3952,-4.3981,-4.4032,-4.407,-4.4061,-4.4097,-4.4132,-4.4114,-4.4143,-4.4141,-4.4143,-4.3977,-4.3958,-4.4157,-4.4157,-4.4157,-4.4157,-4.4157,-4.4157,-4.3916,-4.3988,-4.3972,-4.4048,-4.4047,-4.4097,-4.411,-4.4125,-4.4134,-4.4193,-4.4224,-4.4217,-4.4221,-4.4256,-4.429,-4.4287,-4.4303,-4.434,-4.433,-4.4176,-4.4154,-4.4133,-4.4115,-4.4343,-4.4344,-4.4492,-4.4494,-4.4495]},{"header":{"parameterUnit":"m.s-1","parameterCategory":1,"la1":30.2991,"la2":30.254,"lo1":-89.0895,"lo2":-89.0444,"dy":0.0017,"dx":0.0017,"nx":28,"ny":28,"refTime":"2025-08-30T03:00:00:Z","depth":0,"parameterNumber":3,"parameterNumberName":"V-component_of_WINDS"},"data":[0,0,0,0,0,0,0,0,0,0,0,0,0,0,0,0,0,0,0,0,0,0,0,0,0,0,0,0,0,0,0,0,0,0,0,0,0,0,0,0,0,0,0,0,0,0,0,0,0,0,0,0,0,0,0,0,0,0,-1.3109,-1.311,0,-1.3185,-1.3186,-1.3186,-1.3188,-1.3188,-1.3187,-1.3186,-1.3264,-1.3267,-1.3269,0,0,0,0,0,0,0,0,0,0,0,0,0,-1.2965,-1.2968,-1.3109,-1.311,-1.3111,-1.3185,-1.3186,-1.3187,-1.3189,-1.3187,-1.3186,-1.3185,-1.3263,-1.3266,-1.327,0,0,0,0,0,0,0,0,0,0,0,0,0,-1.3033,-1.2969,-1.3109,-1.3121,-1.3122,-1.3184,-1.3186,-1.3187,-1.3189,-1.3187,-1.3186,-1.3185,-1.3262,-1.3266,-1.327,-1.3325,0,0,-1.3284,-1.3286,0,0,0,0,0,0,0,0,-1.3029,-1.3038,-1.3118,-1.312,-1.3122,-1.3176,-1.3164,-1.3233,-1.3189,-1.3164,-1.3186,-1.3184,-1.3236,-1.3242,-1.3259,-1.3329,-1.3332,-1.3284,-1.3287,-1.3289,-1.329,0,0,0,0,0,0,0,-1.3025,-1.3035,-1.3139,-1.3119,-1.3122,-1.3122,-1.313,-1.3177,-1.3206,-1.3166,-1.3166,-1.3175,-1.3236,-1.3255,-1.3261,-1.3334,-1.3284,-1.3288,-1.3291,-1.3292,-1.3453,-1.3455,0,0,0,0,0,0,-1.3017,-1.3031,-1.3136,-1.3141,-1.3071,-1.3126,-1.3135,-1.316,-1.3206,-1.3212,-1.3176,-1.3175,-1.3248,-1.3256,-1.3264,-1.3333,-1.3289,-1.3293,-1.3295,-1.3452,-1.3454,-1.3456,0,0,0,0,0,0,-1.3014,-1.3027,-1.3133,-1.3086,-1.31,-1.313,-1.3158,-1.3162,-1.3181,-1.3214,-1.3219,-1.319,-1.3247,-1.3258,-1.331,-1.3336,-1.3295,-1.3299,-1.345,-1.3452,-1.3455,-1.3471,0,0,0,0,0,0,-1.301,-1.3026,-1.3047,-1.3087,-1.3102,-1.3179,-1.3159,-1.3165,-1.3188,-1.3187,-1.3228,-1.3233,-1.3247,-1.3304,-1.3315,-1.3341,-1.3302,-1.3448,-1.3451,-1.3454,-1.3468,-1.3474,-1.3478,0,0,0,0,0,-1.3005,-1.3048,-1.3048,-1.3061,-1.313,-1.318,-1.3189,-1.3204,-1.319,-1.3212,-1.3233,-1.3232,-1.333,-1.3309,-1.3321,-1.335,-1.3446,-1.345,-1.3454,-1.3466,-1.3473,-1.3478,0,0,0,0,0,0,-1.3011,-1.3054,-1.3054,-1.3112,-1.3142,-1.318,-1.3209,-1.321,-1.3245,-1.3243,-1.3259,-1.3269,-1.3321,-1.334,-1.3316,-1.3406,-1.3387,-1.3393,-1.3392,-1.3399,-1.3403,-1.3399,-1.3306,0,0,0,0,0,-1.3019,-1.3057,-1.3092,-1.3139,-1.3154,-1.3179,-1.3201,-1.321,-1.3242,-1.3255,-1.328,-1.3312,-1.335,-1.3375,-1.3411,-1.347,-1.348,-1.3495,-1.35,-1.3504,-1.351,-1.3544,-1.3552,-1.3468,-1.3468,-1.3467,0,0,-1.3036,-1.3064,-1.3087,-1.3141,-1.3166,-1.3205,-1.319,-1.3231,-1.326,-1.3261,-1.3314,-1.3333,-1.3369,-1.3425,-1.3451,-1.3443,-1.3535,-1.3509,-1.3512,-1.3516,-1.3549,-1.3557,-1.3564,-1.347,-1.347,-1.3469,0,0,-1.3088,-1.3112,-1.3155,-1.318,-1.3217,-1.3233,-1.3243,-1.3281,-1.3294,-1.3346,-1.3349,-1.3383,-1.3448,-1.3474,-1.3496,-1.3556,-1.3557,-1.3567,-1.3595,-1.3627,-1.3634,-1.364,-1.3664,-1.3672,-1.3573,-1.3573,-1.3573,0,-1.3105,-1.3163,-1.3177,-1.3219,-1.3243,-1.3245,-1.3289,-1.3312,-1.336,-1.3377,-1.3366,-1.3448,-1.3472,-1.3536,-1.355,-1.3567,-1.358,-1.3565,-1.3632,-1.3638,-1.3644,-1.3667,-1.3675,-1.3574,-1.3574,-1.3574,-1.3574,0,-1.3183,-1.3223,-1.3253,-1.33,-1.3327,-1.3369,-1.3389,-1.3415,-1.3421,-1.3438,-1.3491,-1.352,-1.3563,-1.3578,-1.3584,-1.3642,-1.3636,-1.3628,-1.361,-1.3653,-1.3675,-1.3684,-1.3576,-1.3576,-1.3575,-1.3575,0,0,-1.3243,-1.3296,-1.3307,-1.3328,-1.3369,-1.3401,-1.3443,-1.3486,-1.3508,-1.354,-1.3577,-1.3632,-1.3625,-1.3649,-1.3658,-1.3686,-1.3735,-1.3675,-1.3676,-1.3687,-1.3803,-1.3811,-1.3821,-1.3734,-1.3736,-1.3737,-1.3801,0,-1.3301,-1.3377,-1.339,-1.3457,-1.3495,-1.3497,-1.3535,-1.3564,-1.358,-1.3615,-1.3633,-1.3672,-1.3659,-1.3674,-1.3702,-1.3723,-1.3759,-1.3718,-1.377,-1.3772,-1.3764,-1.3832,-1.384,-1.3899,-1.3809,-1.3811,-1.3812,0,-1.338,-1.3414,-1.3485,-1.3522,-1.3538,-1.3572,-1.3612,-1.3644,-1.3678,-1.3688,-1.3715,-1.372,-1.3764,-1.3742,-1.3804,-1.3776,-1.3798,-1.3811,-1.3814,-1.3821,-1.3797,-1.3844,-1.3918,-1.3928,-1.3825,-1.3824,-1.3823,0,-1.3419,-1.3483,-1.3535,-1.3552,-1.3596,-1.3619,-1.3638,-1.367,-1.3695,-1.3729,-1.3746,-1.3785,-1.3807,-1.3837,-1.3853,-1.3834,-1.3914,-1.3893,-1.3925,-1.3925,-1.3945,-1.3944,-1.4026,-1.3954,-1.3953,-1.3953,-1.3953,0,-1.3484,-1.3528,-1.3553,-1.3585,-1.3634,-1.3648,-1.3696,-1.3715,-1.3743,-1.3778,-1.3781,-1.3815,-1.3832,-1.3868,-1.388,-1.393,-1.3939,-1.395,-1.3953,-1.3951,-1.395,-1.3968,-1.3965,-1.3956,-1.3955,-1.3955,-1.3954,0,-1.3538,-1.3556,-1.3613,-1.3649,-1.3659,-1.3694,-1.3725,-1.3756,-1.3771,-1.3817,-1.3828,-1.3853,-1.3895,-1.3913,-1.3964,-1.3972,-1.4032,-1.403,-1.4021,-1.4023,-1.4055,-1.4053,-1.4154,-1.4169,-1.4084,-1.4085,-1.4085,0,-1.358,-1.3614,-1.3654,-1.3678,-1.3698,-1.3737,-1.3762,-1.3776,-1.3802,-1.3843,-1.3869,-1.3911,-1.3946,-1.4014,-1.4037,-1.4076,-1.4078,-1.411,-1.4084,-1.4082,-1.4082,-1.4081,-1.4085,-1.4116,-1.4117,-1.4118,-1.4118,0,-1.3654,-1.3661,-1.3697,-1.3737,-1.3767,-1.3799,-1.383,-1.385,-1.3869,-1.3898,-1.3942,-1.3969,-1.4022,-1.4064,-1.4105,-1.4125,-1.4126,-1.4126,-1.4136,-1.4136,-1.4131,-1.4137,-1.4037,-1.4124,-1.4124,-1.4123,-1.4123,-1.4123,-1.3705,-1.3736,-1.3769,-1.3809,-1.3834,-1.3863,-1.3895,-1.3914,-1.395,-1.3995,-1.4,-1.4048,-1.408,-1.4135,-1.4156,-1.4193,-1.4185,-1.4199,-1.4203,-1.4207,-1.4211,-1.4122,-1.42,-1.42,-1.42,-1.42,-1.42,0,-1.378,-1.3802,-1.3839,-1.3883,-1.3915,-1.3911,-1.3945,-1.3972,-1.4014,-1.4044,-1.4078,-1.4128,-1.4169,-1.4195,-1.4236,-1.4261,-1.4263,-1.4272,-1.4272,-1.4277,-1.4214,-1.4203,-1.427,-1.427,-1.427,-1.427,-1.427,-1.427,-1.3824,-1.3877,-1.3887,-1.3952,-1.3973,-1.4019,-1.4039,-1.4066,-1.409,-1.4147,-1.4181,-1.4197,-1.4225,-1.4269,-1.4306,-1.4313,-1.4329,-1.4339,-1.4346,-1.4288,-1.4281,-1.4274,-1.4263,-1.4342,-1.4342,-1.4405,-1.4406,-1.4406]}]]